COSMOS 1275 DEB

Satellite information

Favourite Embed

Satellite Type and Status

DEBRISIN ORBIT

Key statistics

Satellite COSMOS 1275 DEB at a glance.

Uptime

16263

Days in orbit

Revolutions

≈ 14.4

Per day

Orbit

LEO

Low Earth Orbit

Inclination

82.9

Latest

Satellite identification and parameters

Extended collection of information and parameters for COSMOS 1275 DEB.

Object identification

Identified? True

Debris? True

Object name: COSMOS 1275 DEB

International designator: 1981-053NQ

Object number (NORAD): 39954

Object ID (CCSDS): 39954

Country: COMMONWEALTH OF INDEPENDENT STATES (CIS)

Current information (Y/N): Y

RCS size: SMALL

Orbital parameters

Period: 99.998 minutes

Inclination: 82.8891 deg

SMA: 7136.519 km

Apoapsis: 786.57 km

Periapsis: 730.198 km

RAAN: 249.2195 deg

Eccentricy: 0.00394955

Argument of periapsis: 127.3308 deg

Mean anomaly: 233.1494 deg

Mean motion: 14.4003537 rev/day

Mean motion (dot): 0.00009114 rev/day2

B* drag term: 0.0028588953 1/REarth

Two-line elements (TLE)

Creation date: Dec. 8, 2025, 11:02 a.m.

Reference frame: TEME

Reference center: EARTH

Epoch: Dec. 8, 2025, 3:54 a.m. UTC

TLE line 0: 0 COSMOS 1275 DEB

TLE line 1: 1 39954U 81053NQ 25342.16279302 .00009114 00000-0 28589-2 0 9992

TLE line 2: 2 39954 82.8891 249.2195 0039495 127.3308 233.1494 14.40035370595657

Live tracking on map

Real-time ground track for satellite COSMOS 1275 DEB.

In-orbit conjunctions

A list of the most updated potential collisions computed for object COSMOS 1275 DEB.

Target Orbit TCA Probability of collision Miss distance Type
CZ-6A DEB SSO 2025-05-19 08:35:33 0.0001053236 153.0 (m) DEBRIS
COSMOS 1275 DEB LEO 2025-04-08 17:22:47 0.0001895443 174.0 (m) DEBRIS
PICOSAT 9 LEO 2025-03-02 20:35:18 0.0001300386 148.0 (m) PAYLOAD
COSMOS 1110 LEO 2025-02-15 14:11:08 0.0001704883 394.0 (m) PAYLOAD

Associated space launch

Navigation satellite providing location information for the Tsiklon-B navigation system

COSMOS 1275 DEB was lifted into orbit during the mission ‘Kosmos-3M | Parus 27’, on board a Kosmos-3M space rocket.

The launch took place on June 4, 1981, 3:41 p.m. from 132/2.

For more information about the launch, click the button.

Launch to space Kosmos-3M | Parus 27
Kosmos-3M | Parus 27

Agency: N/A

Status: Launch Successful

Launch date: June 4, 1981, 3:41 p.m. UTC

Rocket: Kosmos-3M

Launch pad: 132/2

Location: Plesetsk Cosmodrome, Russian Federation

...

Latest news about this satellite

There are no fresh news available about this satellite. Check back as we update our databases every day.


Newsletter sign-up

Weekly statistics, charts and insights to help you stay on top of the space industry.